Columbia, MO

5:52 AM CST on November 23, 2017 (GMT -0600)
Columbia Regional

Weather History for KCOU - September, 2014

Change the Weather History Date:

Sunday, September 21, 2014

  Actual Average Record
Temperature  
Mean Temperature 65 °F 65 °F  
Max Temperature 76 °F 77 °F 100 °F (1893)
Min Temperature 54 °F 54 °F 35 °F (1983)
Degree Days  
Heating Degree Days 0 3  
Month to date heating degree days 40 25  
Since 1 July heating degree days 40 27  
Cooling Degree Days 0 3  
Month to date cooling degree days 97 122  
Year to date cooling degree days 1207 1205  
Growing Degree Days 15 (Base 50)    
Moisture  
Dew Point 54 °F    
Average Humidity 69    
Maximum Humidity 100    
Minimum Humidity 38    
Precipitation  
Precipitation 0.00 in 0.13 in 3.57 in (1945)
Month to date precipitation 6.15 2.68  
Year to date precipitation 30.44 32.43  
Snow  
Snow 0.00 in 0.00 in 0.00 in (2015)
Month to date snowfall 0.0 0.0  
Since 1 July snowfall 0.0 0.0  
Since 1 September snowfall 0.0 0.0  
Snow Depth 0.00 in    
Sea Level Pressure  
Sea Level Pressure 30.07 in    
Wind  
Wind Speed 11 mph (NNW)    
Max Wind Speed 22 mph    
Max Gust Speed 27 mph    
Visibility 10 miles    
Events      
T = Trace of Precipitation, MM = Missing Value Source: NWS Daily Summary

Daily Weather History Graph

Daily Weather History Graph

Search for Another Location

Airport or City:

Trip Planner

Search our weather history database for the weather conditions in past years. The results will help you decide how hot, cold, wet, or windy it might be!

Date:

Astronomy

Sep. 21, 2014 Rise Set
Actual Time 6:55 AM CDT 7:07 PM CDT
Civil Twilight 6:29 AM CDT 7:34 PM CDT
Nautical Twilight 5:57 AM CDT 8:05 PM CDT
Astronomical Twilight 5:26 AM CDT 8:36 PM CDT
Moon 4:30 AM CDT (9/21) 5:43 PM CDT (9/21)
Length of Visible Light 13h 04m
Length of Day
12h 11m
Waning Crescent, 6% of the Moon is Illuminated
Sep 21
Waning Crescent
Sep 24
New
Oct 1
First Quarter
Oct 8
Full
Oct 15
Last Quarter

Hourly Weather History & Observations

Time (CDT) Temp. Dew Point Humidity Pressure Visibility Wind Dir Wind Speed Gust Speed Precip Events Conditions
12:54 AM 73.9 °F 70.0 °F 87% 29.93 in 9.0 mi West 9.2 mph - N/A   Scattered Clouds
1:54 AM 71.1 °F 69.1 °F 93% 29.93 in 7.0 mi West 5.8 mph - N/A   Clear
2:54 AM 70.0 °F 69.1 °F 97% 29.93 in 6.0 mi West 6.9 mph - N/A   Clear
3:54 AM 70.0 °F 66.9 °F 90% 29.97 in 10.0 mi NNW 15.0 mph - N/A   Clear
4:54 AM 64.0 °F 57.9 °F 80% 30.00 in 10.0 mi North 13.8 mph - N/A   Clear
5:54 AM 61.0 °F 53.1 °F 75% 30.03 in 10.0 mi North 11.5 mph - N/A   Clear
6:54 AM 57.9 °F 53.1 °F 84% 30.05 in 10.0 mi NW 5.8 mph - N/A   Clear
7:54 AM 61.0 °F 53.1 °F 75% 30.06 in 10.0 mi WNW 4.6 mph - N/A   Clear
8:54 AM 64.9 °F 54.0 °F 68% 30.08 in 10.0 mi WNW 8.1 mph - N/A   Clear
9:54 AM 69.8 °F 53.6 °F 56% 30.11 in 10.0 mi WNW 11.5 mph - N/A   Clear
10:54 AM 72.0 °F 52.0 °F 49% 30.10 in 10.0 mi NW 12.7 mph - N/A   Clear
11:54 AM 73.0 °F 52.0 °F 48% 30.09 in 10.0 mi NW 15.0 mph - N/A   Clear
12:54 PM 75.0 °F 48.9 °F 40% 30.09 in 10.0 mi NW 17.3 mph 23.0 mph N/A   Clear
1:54 PM 75.0 °F 48.9 °F 40% 30.08 in 10.0 mi NNW 18.4 mph - N/A   Clear
2:54 PM 75.0 °F 48.9 °F 40% 30.07 in 10.0 mi NNW 19.6 mph - N/A   Clear
3:54 PM 75.0 °F 48.9 °F 40% 30.07 in 10.0 mi NNW 16.1 mph - N/A   Clear
4:54 PM 73.9 °F 50.0 °F 43% 30.09 in 10.0 mi North 17.3 mph - N/A   Partly Cloudy
5:54 PM 71.1 °F 50.0 °F 47% 30.11 in 10.0 mi North 11.5 mph - N/A   Clear
6:54 PM 66.0 °F 48.9 °F 54% 30.12 in 10.0 mi North 10.4 mph - N/A   Clear
7:54 PM 61.0 °F 50.0 °F 67% 30.14 in 10.0 mi NNW 6.9 mph - N/A   Clear
8:54 PM 59.0 °F 50.0 °F 72% 30.17 in 10.0 mi NNW 6.9 mph - N/A   Clear
9:54 PM 57.0 °F 50.0 °F 77% 30.19 in 10.0 mi North 6.9 mph - N/A   Clear
10:54 PM 55.9 °F 50.0 °F 80% 30.20 in 10.0 mi NNE 8.1 mph - N/A   Clear
11:54 PM 55.9 °F 50.0 °F 80% 30.20 in 10.0 mi North 4.6 mph - N/A   Clear